Meteo pe oră la Bolshie Verezi

Astăzi, 10 Mai, Luni

Timp Temperatura Precipitaţii Vânt Presiune Umiditate
00:00 +15°C° 0 mm 4 m/s 751 mmHg 73%
01:00 +16°C° 0.1 mm 3 m/s 752 mmHg 75%
02:00 +14°C° 0.1 mm 3 m/s 752 mmHg 78%
03:00 +14°C° 0.1 mm 3 m/s 753 mmHg 80%
04:00 +14°C° 0.3 mm 3 m/s 753 mmHg 80%
05:00 +16°C° 0.3 mm 2 m/s 754 mmHg 80%
06:00 +16°C° 0.3 mm 2 m/s 754 mmHg 80%
07:00 +17°C° 0 mm 2 m/s 754 mmHg 73%
08:00 +19°C° 0 mm 2 m/s 755 mmHg 66%
09:00 +20°C° 0 mm 3 m/s 755 mmHg 58%
10:00 +21°C° 0 mm 3 m/s 755 mmHg 54%
11:00 +22°C° 0 mm 3 m/s 756 mmHg 51%
12:00 +24°C° 0 mm 3 m/s 756 mmHg 47%
13:00 +24°C° 0 mm 3 m/s 756 mmHg 46%
14:00 +25°C° 0 mm 3 m/s 756 mmHg 44%
15:00 +25°C° 0 mm 3 m/s 756 mmHg 43%
16:00 +24°C° 0 mm 2 m/s 757 mmHg 47%
17:00 +24°C° 0 mm 1 m/s 757 mmHg 51%
18:00 +23°C° 0 mm 1 m/s 757 mmHg 56%
19:00 +20°C° 0 mm 2 m/s 758 mmHg 64%
20:00 +18°C° 0 mm 2 m/s 758 mmHg 72%
21:00 +16°C° 0 mm 3 m/s 758 mmHg 81%
22:00 +16°C° 0.1 mm 3 m/s 759 mmHg 84%
23:00 +14°C° 0.1 mm 3 m/s 759 mmHg 86%

Mâine, 11 Mai, Marţi

Timp Temperatura Precipitaţii Vânt Presiune Umiditate
00:00 +13°C° 0.1 mm 3 m/s 759 mmHg 89%
01:00 +13°C° 0 mm 3 m/s 759 mmHg 90%
02:00 +13°C° 0 mm 3 m/s 759 mmHg 90%
03:00 +13°C° 0 mm 3 m/s 760 mmHg 91%
04:00 +13°C° 0 mm 3 m/s 760 mmHg 89%
05:00 +14°C° 0 mm 3 m/s 760 mmHg 87%
06:00 +14°C° 0 mm 4 m/s 760 mmHg 84%
07:00 +17°C° 0 mm 3 m/s 761 mmHg 77%
08:00 +19°C° 0 mm 3 m/s 761 mmHg 69%
09:00 +20°C° 0 mm 3 m/s 761 mmHg 61%
10:00 +22°C° 0 mm 3 m/s 761 mmHg 56%
11:00 +24°C° 0 mm 3 m/s 761 mmHg 51%
12:00 +25°C° 0 mm 2 m/s 761 mmHg 46%
13:00 +25°C° 0 mm 2 m/s 761 mmHg 43%
14:00 +26°C° 0 mm 2 m/s 761 mmHg 41%
15:00 +26°C° 0 mm 2 m/s 761 mmHg 38%
16:00 +25°C° 0 mm 2 m/s 761 mmHg 44%
17:00 +25°C° 0 mm 2 m/s 761 mmHg 49%
18:00 +24°C° 0 mm 2 m/s 761 mmHg 54%
19:00 +21°C° 0 mm 2 m/s 762 mmHg 60%
20:00 +20°C° 0 mm 2 m/s 762 mmHg 65%
21:00 +19°C° 0 mm 3 m/s 762 mmHg 71%
22:00 +18°C° 0 mm 3 m/s 762 mmHg 73%
23:00 +17°C° 0 mm 3 m/s 762 mmHg 76%

Poimâine, 12 Mai, Miercuri

Timp Temperatura Precipitaţii Vânt Presiune Umiditate
00:00 +16°C° 0 mm 3 m/s 762 mmHg 78%
01:00 +16°C° 0 mm 3 m/s 762 mmHg 79%
02:00 +14°C° 0 mm 3 m/s 762 mmHg 81%
03:00 +14°C° 0 mm 3 m/s 762 mmHg 82%
04:00 +14°C° 0 mm 3 m/s 763 mmHg 78%
05:00 +16°C° 0 mm 3 m/s 763 mmHg 75%
06:00 +17°C° 0 mm 3 m/s 763 mmHg 72%
07:00 +19°C° 0 mm 3 m/s 763 mmHg 65%
08:00 +21°C° 0 mm 3 m/s 763 mmHg 57%
09:00 +22°C° 0 mm 4 m/s 763 mmHg 50%
10:00 +23°C° 0 mm 4 m/s 763 mmHg 46%
11:00 +25°C° 0 mm 4 m/s 763 mmHg 42%
12:00 +26°C° 0 mm 4 m/s 763 mmHg 38%
13:00 +26°C° 0 mm 4 m/s 763 mmHg 36%
14:00 +26°C° 0 mm 4 m/s 762 mmHg 35%
15:00 +26°C° 0 mm 4 m/s 762 mmHg 34%
16:00 +25°C° 0 mm 3 m/s 762 mmHg 39%
17:00 +24°C° 0 mm 2 m/s 762 mmHg 44%
18:00 +24°C° 0 mm 2 m/s 762 mmHg 49%
19:00 +21°C° 0 mm 2 m/s 762 mmHg 50%
20:00 +20°C° 0 mm 2 m/s 762 mmHg 51%
21:00 +18°C° 0 mm 2 m/s 762 mmHg 52%
22:00 +18°C° 0 mm 2 m/s 762 mmHg 53%
23:00 +17°C° 0 mm 2 m/s 762 mmHg 53%

13 Mai, Joi

Timp Temperatura Precipitaţii Vânt Presiune Umiditate
00:00 +17°C° 0 mm 2 m/s 762 mmHg 54%
01:00 +16°C° 0 mm 2 m/s 762 mmHg 55%
02:00 +16°C° 0 mm 2 m/s 762 mmHg 57%
03:00 +15°C° 0 mm 2 m/s 762 mmHg 58%
04:00 +16°C° 0 mm 2 m/s 762 mmHg 60%
05:00 +17°C° 0 mm 2 m/s 762 mmHg 61%
06:00 +18°C° 0 mm 2 m/s 762 mmHg 62%
07:00 +19°C° 0 mm 3 m/s 762 mmHg 57%
08:00 +21°C° 0 mm 3 m/s 762 mmHg 52%
09:00 +23°C° 0 mm 4 m/s 762 mmHg 46%
10:00 +25°C° 0 mm 4 m/s 762 mmHg 44%
11:00 +25°C° 0 mm 4 m/s 762 mmHg 41%
12:00 +26°C° 0 mm 4 m/s 762 mmHg 38%
13:00 +26°C° 0 mm 4 m/s 762 mmHg 37%
14:00 +27°C° 0 mm 4 m/s 761 mmHg 36%
15:00 +27°C° 0 mm 4 m/s 761 mmHg 35%
16:00 +26°C° 0 mm 3 m/s 761 mmHg 40%
17:00 +25°C° 0 mm 3 m/s 761 mmHg 46%
18:00 +24°C° 0 mm 2 m/s 761 mmHg 52%
19:00 +23°C° 0 mm 2 m/s 761 mmHg 54%
20:00 +20°C° 0 mm 2 m/s 761 mmHg 56%
21:00 +19°C° 0 mm 2 m/s 761 mmHg 58%
22:00 +18°C° 0 mm 2 m/s 761 mmHg 59%
23:00 +18°C° 0 mm 2 m/s 761 mmHg 60%

14 Mai, Vineri

Timp Temperatura Precipitaţii Vânt Presiune Umiditate
00:00 +17°C° 0 mm 2 m/s 761 mmHg 62%
01:00 +17°C° 0 mm 2 m/s 761 mmHg 63%
02:00 +16°C° 0 mm 2 m/s 761 mmHg 65%
03:00 +16°C° 0 mm 2 m/s 761 mmHg 66%
04:00 +17°C° 0 mm 2 m/s 761 mmHg 66%
05:00 +17°C° 0 mm 2 m/s 761 mmHg 66%
06:00 +18°C° 0 mm 2 m/s 761 mmHg 66%
07:00 +20°C° 0 mm 2 m/s 761 mmHg 60%
08:00 +21°C° 0 mm 3 m/s 761 mmHg 54%
09:00 +24°C° 0 mm 3 m/s 761 mmHg 48%
10:00 +25°C° 0 mm 4 m/s 761 mmHg 44%
11:00 +26°C° 0 mm 4 m/s 760 mmHg 41%
12:00 +27°C° 0 mm 5 m/s 760 mmHg 38%
13:00 +27°C° 0 mm 5 m/s 760 mmHg 37%
14:00 +27°C° 0 mm 5 m/s 760 mmHg 37%
15:00 +27°C° 0 mm 5 m/s 760 mmHg 37%
16:00 +26°C° 0 mm 4 m/s 759 mmHg 43%
17:00 +25°C° 0 mm 3 m/s 759 mmHg 48%
18:00 +24°C° 0 mm 2 m/s 759 mmHg 54%
19:00 +23°C° 0 mm 2 m/s 759 mmHg 56%
20:00 +20°C° 0 mm 2 m/s 759 mmHg 58%
21:00 +19°C° 0 mm 2 m/s 758 mmHg 60%
22:00 +18°C° 0 mm 3 m/s 758 mmHg 61%
23:00 +18°C° 0 mm 3 m/s 758 mmHg 62%

15 Mai, Sâmbătă

Timp Temperatura Precipitaţii Vânt Presiune Umiditate
00:00 +17°C° 0 mm 3 m/s 758 mmHg 63%
01:00 +17°C° 0 mm 3 m/s 758 mmHg 63%
02:00 +17°C° 0 mm 3 m/s 758 mmHg 64%
03:00 +16°C° 0 mm 3 m/s 758 mmHg 64%
04:00 +17°C° 0 mm 3 m/s 758 mmHg 65%
05:00 +18°C° 0 mm 3 m/s 758 mmHg 65%
06:00 +19°C° 0 mm 3 m/s 758 mmHg 65%
07:00 +20°C° 0 mm 3 m/s 758 mmHg 59%
08:00 +22°C° 0 mm 4 m/s 757 mmHg 53%
09:00 +25°C° 0 mm 4 m/s 757 mmHg 48%
10:00 +26°C° 0 mm 5 m/s 757 mmHg 45%
11:00 +27°C° 0 mm 5 m/s 757 mmHg 42%
12:00 +28°C° 0 mm 5 m/s 757 mmHg 39%
13:00 +28°C° 0 mm 5 m/s 757 mmHg 38%
14:00 +28°C° 0 mm 5 m/s 756 mmHg 37%
15:00 +28°C° 0 mm 5 m/s 756 mmHg 37%
16:00 +27°C° 0 mm 4 m/s 756 mmHg 43%
17:00 +26°C° 0 mm 4 m/s 756 mmHg 49%
18:00 +25°C° 0 mm 3 m/s 755 mmHg 55%
19:00 +22°C° 0 mm 3 m/s 755 mmHg 55%
20:00 +21°C° 0 mm 3 m/s 755 mmHg 56%
21:00 +19°C° 0 mm 3 m/s 755 mmHg 57%
22:00 +19°C° 0 mm 3 m/s 755 mmHg 57%
23:00 +18°C° 0 mm 3 m/s 754 mmHg 58%
Arată mai mult

Formular de consimțământ

Meteoprog și furnizorii noștri de servicii pot stoca și accesa date personale, precum cookies, identificatori de dispozitiv sau alte tehnologii similare pe dispozitivul dumneavoastră și procesa astfel de date pentru a personaliza conținutul și reclamele, dar și pentru a oferi caracteristici de social media și pentru a analiza traficul.

  • Stocarea și/sau accesarea informațiilor pe dispozitivul dumneavoastră

    Cookies, identificatori de dispozitiv sau alte informații pot fi stocate sau accesate pe dispozitiv în scopurile indicate mai sus.

  • Reclame și conținut personalizat, evaluarea reclamelor și a conținutului, informații despre audiențe și dezvoltarea produselor

    Reclamele și conținutul pot fi personalizate pe baza unui profil. Pot fi adăugate date suplimentare pentru a personaliza mai bine reclamele și conținutul. Performanța reclamelor și conținutului poate fi măsurată. Pot fi obținute informații despre utilizatorii care au văzut reclamele și conținutul. Aceste date pot fi utilizate pentru a dezvolta sau îmbunătăți experiența utilizatorilor, sistemele și software-ul.

Dând clic pe ‘Sunt de acord’, permiteți utilizarea cookie-urilor menționate, a identificatorilor de dispozitiv, balizelor web sau altor tehnologii similare. Setările pot fi modificate din browser-ul dispozitivului dumneavoastră.

În anumite scopuri, interesele legitime pot prima asupra consimțământului. Puteți citi mai multe informații în acest sens în Politica privind Confidențialitatea Datelor și Cookie.